Hourly Data Report for March 31, 2012

BAGOTVILLE A
QUEBEC

48°20'00.000" N
71°00'00.000" W
159.10 m
7060400
71727
YBG

Download Data

Hourly Data (March 2012)
Hourly Data Report for March 31, 2012
TIME
LST
Temp Definition
°C
Dew Point Definition
°C
Rel Hum Definition
%
Precip. Amount Definition
mm

Wind Dir Definition
10's deg

Wind Spd Definition
km/h
Visibility Definition
km
Stn Press Definition
kPa
Hmdx Definition


Wind Chill Definition


Weather Definition


00:00 -4.1 -10.0 63   27 17 24.1 99.73   -10 Clear
01:00 -4.7 -10.1 66   28 17 24.1 99.74   -11 Clear
02:00 -5.3 -10.5 67   28 13 24.1 99.73   -10 Clear
03:00 -6.0 -10.7 69   28 11 24.1 99.76   -11 Clear
04:00 -6.2 -11.3 67   27 15 24.1 99.79   -12 Clear
05:00 -6.9 -11.0 73   26 11 40.2 99.83   -12 Clear
06:00 -7.6 -11.5 74   24 9 40.2 99.86   -12 Clear
07:00 -5.8 -10.8 68   28 13 40.2 99.86   -11 Mainly Clear
08:00 -3.7 -11.0 57   28 17 40.2 99.87   -9 Clear
09:00 -2.1 -9.8 56   32 15 40.2 99.86   -7 Clear
10:00 -0.3 -8.5 54   29 15 40.2 99.80   -5 Clear
11:00 1.0 -8.4 49   29 17 40.2 99.73     Clear
12:00 2.4 -7.9 46   29 19 40.2 99.64     Clear
13:00 3.1 -7.1 47   27 19 40.2 99.58     Clear
14:00 4.3 -8.1 40   27 13 40.2 99.51     Clear
15:00 4.4 -7.5 42   30 17 40.2 99.46     Clear
16:00 4.6 -10.1 33   29 17 40.2 99.39     Mainly Clear
17:00 4.3 -11.3 31   30 11 40.2 99.35     Mainly Clear
18:00 2.6 -10.6 37   27 15 40.2 99.32     Mainly Clear
19:00 0.6 -6.4 59   26 7 40.2 99.35     Mainly Clear
20:00 -0.3 -6.0 65   25 4 24.1 99.36   -2 Mainly Clear
21:00 -1.0 -11.0 47   5 4 24.1 99.37   -2 Clear
22:00 -3.6 -10.5 59   20 4 24.1 99.35   -5 Clear
23:00 -4.6 -11.1 60   21 7 24.1 99.27   -8 Clear

Notes on Data Quality.

Legend

  • E = Estimated
  • M = Missing
  • NA = Not Available*
  • [empty] = Indicates an unobserved value
Date modified: